Regional Weather Roundup
Issued by NWS New Orleans/Baton Rouge, LA

Home | Current Version | Previous Version | Graphics & Text | Print | Product List | Glossary Off
Versions: 1 2 3 4 5 6 7 8 9 10 11 12 13 14 15 16 17 18 19 20 21 22 23 24 25 26 27 28 29 30 31 32 33 34 35 36 37 38 39 40 41 42 43 44 45 46 47 48 49 50

803
ASUS44 KLIX 240405
RWRLIX
NEW ORLEANS REGIONAL WEATHER ROUNDUP
NATIONAL WEATHER SERVICE NEW ORLEANS LA
1100 PM CDT WED APR 23 2014

NOTE: "FAIR" INDICATES FEW OR NO CLOUDS BELOW 12,000 FEET WITH NO
      SIGNIFICANT WEATHER AND/OR OBSTRUCTIONS TO VISIBILITY.
      SKY/WX - SKY CONDITION AND SIGNIFICANT WEATHER.
      TMP - AIR TEMPERATURE.     DP    - DEWPOINT TEMPERATURE.
      RH  - RELATIVE HUMIDITY.   PRES  - PRESSURE.
      HI  - HEAT INDEX.          WCI   - WIND CHILL INDEX.

*  THESE STATIONS ARE NOT NWS OR FAA STATIONS AND ARE NOT UNDER
   NWS QUALITY CONTROL.

LAZ038-040-048-061>063-065>067-069-240500-
SOUTHEAST LOUISIANA

CITY           SKY/WX    TMP DP  RH WIND       PRES   REMARKS
N.O. AUDUBON     N/A     70  67  89 MISG        N/A
N.O. INTL ARPT PTCLDY    70  64  81 SW6       29.93S
N.O. LAKEFRONT CLEAR     72  66  81 SW9       29.94R
N.O. DOWNTOWN*   N/A     73  63  68 S6        29.94S
SLIDELL        CLEAR     63  59  87 CALM      29.93R
BATON ROUGE    CLEAR     71  61  70 S7        29.92S
BOOTHVILLE     CLEAR     70  67  90 S6        29.94S
BELLE CHASSE   PTCLDY    66  62  87 SW3       29.93S
BOGALUSA*        N/A     63  59  86 CALM      29.94S
GALLIANO*      CLEAR     67  62  86 CALM      29.94S
NEW ROADS*       N/A     69  61  76 CALM      29.91S
GONZALES*        N/A     68  64  89 CALM      29.92F
HAMMOND*       CLEAR     68  61  77 S3        29.94S
HOUMA*           N/A     64  61  91 CALM      29.94S FOG
PORT FOURCHON* CLEAR     72  66  83 SW3       29.95F

$$

MSZ070-080>082-240500-
SOUTHERN MISSISSIPPI

CITY           SKY/WX    TMP DP  RH WIND       PRES   REMARKS
MCCOMB         CLEAR     62  53  72 CALM      29.92S
GULFPORT       CLEAR     70  65  84 CALM      29.92S
BILOXI         CLEAR     71  68  92 S6        29.93S
PASCAGOULA     PTCLDY    64  63  96 CALM      29.93S FOG

$$

COASTAL OBSERVATIONS
LAKE AND NEARSHORE STATIONS

STATION/POSITION TIME  TEMP    WIND        PRES    WAVE
                       AIR SEA DIR/SP/G            HT/PER
                 (UTC) (F)     (DEG/KT/KT) (MB)    (FT/S)
PASCAGOULA       0400   71     220/  4/  6 1012.9
WAVELAND YACHT   0400   71 76  200/  4/  6 1012.6
GRAND ISLE       0400   72 72  220/  4/  7 1014.4
SOUTHWEST PASS   0400   67 61  190/  7/  7 1014.3
NEW CANAL        0400   73 73  210/  9/ 11 1014.0
SHELL BEACH      0400   71 70  200/  6/  7 1013.5

OFFSHORE STATIONS

STATION/POSITION TIME  TEMP    WIND        PRES    WAVE
                       AIR SEA DIR/SP/G            HT/PER
                 (UTC) (F)     (DEG/KT/KT) (MB)    (FT/S)
64 S DAUPHIN ISL 0348   70 72  220/  6/  6 1014.1

$$




USA.gov is the U.S. government's official web portal to all federal, state and local government web resources and services.